[keps] orb08122.2l.amsat

Ray Hoad r.hoad at att.net
Thu May 1 21:02:21 PDT 2008


SB KEPS @ AMSAT  $ORB08122.N
2Line Orbital Elements 08122.AMSAT

HR AMSAT ORBITAL ELEMENTS FOR AMATEUR SATELLITES IN NASA FORMAT
FROM WA5QGD FORT WORTH,TX May 1, 2008
Send Subscribe/unsubscribe to KEPS at 
http://www.amsat.org/mailman/listinfo/keps
BID: ORB08122.N

DECODE 2-LINE ELSETS WITH THE FOLLOWING KEY:
1 AAAAAU 00  0  0 BBBBB.BBBBBBBB  .CCCCCCCC  00000-0  00000-0 0  DDDZ
2 AAAAA EEE.EEEE FFF.FFFF GGGGGGG HHH.HHHH III.IIII JJ.JJJJJJJJKKKKKZ
KEY: A-CATALOGNUM B-EPOCHTIME C-DECAY D-ELSETNUM E-INCLINATION F-RAAN
G-ECCENTRICITY H-ARGPERIGEE I-MNANOM J-MNMOTION K-ORBITNUM Z-CHECKSUM

TO ALL RADIO AMATEURS BT

AO-07
1 07530U 74089B   08122.76642736 -.00000027  00000-0  10000-3 0  1656
2 07530 101.4692 155.8093 0011935 354.0385 006.0534 12.53573868531160
AO-10
1 14129U 83058B   08122.62036453 -.00000035  00000-0  10000-3 0  5015
2 14129 025.9330 217.5751 6000234 120.0565 312.1904 02.05869508187147
UO-11
1 14781U 84021B   08122.86267266  .00000157  00000-0  28160-4 0  6588
2 14781 098.1576 156.1958 0008249 218.0707 141.9949 14.79638226297005
RS-15
1 23439U 94085A   08121.74106645 -.00000039  00000-0  10000-3 0 01159
2 23439 064.8170 211.7704 0148933 131.9563 229.4163 11.27551810549610
FO-29
1 24278U 96046B   08121.93986294 -.00000005  00000-0  33241-4 0 07845
2 24278 098.5882 044.4041 0350775 338.0279 020.6128 13.52937899578006
SO-33
1 25509U 98061B   08121.65882824  .00000210  00000-0  29743-4 0  1871
2 25509 031.4331 225.0901 0355031 331.5902 026.5781 14.28212379496813
AO-40
1 26609U 00072B   08121.03965490 -.00000109  00000-0  10000-3 0   503
2 26609 007.5599 085.3238 7914604 076.3922 352.8845 01.25584746 34430
VO-52
1 28650U 05017B   08122.39697029 -.00000172  00000-0 -15137-4 0  9186
2 28650 097.7917 190.2850 0026017 294.4492 065.4003 14.81454503161672
PO-63
1 29712U 07001D   08122.71423325  .00000778  00000-0  10924-3 0  4085
2 29712 097.8773 181.7675 0014202 167.7380 192.4162 14.80129717 70596
AO-16
1 20439U 90005D   08121.55050501  .00000040  00000-0  30108-4 0 03102
2 20439 098.2279 104.0564 0010642 324.3861 035.6617 14.31791991954109
LO-19
1 20442U 90005G   08121.95507230 -.00000067  00000-0 -97626-5 0 02374
2 20442 098.1984 113.1177 0011380 320.0487 039.9866 14.32030172954317
AO-27
1 22825U 93061C   08121.59566144  .00000013  00000-0  21447-4 0  9570
2 22825 098.3806 083.4122 0009210 045.9170 314.2750 14.29237447760977
IO-26
1 22826U 93061D   08121.65797515 -.00000005  00000-0  14407-4 0 06629
2 22826 098.3737 084.4039 0009753 041.6550 318.5372 14.29485666761073
PO-28
1 22829U 93061G   08122.50729459  .00000011  00000-0  20479-4 0  9332
2 22829 098.3616 086.3330 0010108 013.3363 346.8083 14.30187667761458
GO-32
1 25397U 98043D   08121.79387297 -.00000050  00000-0 -38940-5 0  5873
2 25397 098.3682 159.2879 0001853 048.3436 311.7915 14.23142004509473
MO-46
1 26548U 00057D   08122.57817869 -.00000035  00000-0  13864-4 0   863
2 26548 064.5578 274.4962 0024512 330.5413 029.4263 14.83254853410902
NO-44
1 26931U 01043C   08121.77997124  .00000147  00000-0  89727-4 0 08681
2 26931 067.0534 046.7822 0006050 276.6029 083.4383 14.29522113343638
SO-50
1 27607U 02058C   08121.70065723 -.00000144  00000-0  13157-6 0  5910
2 27607 064.5592 197.8538 0084226 288.8397 070.3586 14.71349712287985
CO-55
1 27844U 03031E   08121.54196560  .00000062  00000-0  49331-4 0 02940
2 27844 098.7172 130.4702 0008893 253.3133 106.7073 14.20576161250673
CO-57
1 27848U 03031J   08122.59029371  .00000046  00000-0  41831-4 0  2461
2 27848 098.7170 130.6090 0008904 255.5328 104.4852 14.20385426250795
AO-51
1 28375U 04025K   08121.61030028  .00000011  00000-0  16216-4 0   889
2 28375 098.0754 148.8488 0083802 297.9657 061.3074 14.40605220201555
CO-56
1 28941U 06005C   08122.76736932  .00029476  27321-5  23167-3 0   150
2 28941 098.1024 227.2145 0174653 209.2913 149.8477 15.54382218122829
CP4
1 31122U 07012F   08122.19692183  .00000553  00000-0  13192-3 0  3267
2 31122 098.0447 189.5257 0087931 115.0660 245.9700 14.55119300 55249
CP3
1 31128U 07012M   08121.85376900 -.00000046  00000-0  00000-0 0 03226
2 31128 098.0420 187.2869 0104266 120.9407 240.2072 14.51940046055060
LIBERT
1 31129U 07012N   08122.72667882  .00000340  00000-0  89029-4 0  9321
2 31129 098.0408 188.1604 0103322 118.1959 242.9719 14.52030744 55172
NOAA-10
1 16969U 86073A   08121.69747066 -.00000142  00000-0 -39494-4 0 01031
2 16969 098.7251 143.7568 0011781 323.1029 036.9307 14.27357137124664
NOAA-11
1 19531U 88089A   08121.78698786  .00000133  00000-0  91584-4 0 01465
2 19531 098.7954 211.7732 0011243 199.9386 160.1330 14.14871306011205
NOAA-12
1 21263U 91032A   08121.82438582  .00000179  00000-0  94455-4 0 06536
2 21263 098.7665 123.7825 0011373 263.2854 096.7032 14.25529693881640
MET-3/5
1 21655U 91056A   08122.85191584  .00000051  00000-0  10000-3 0  4258
2 21655 082.5538 137.1214 0014523 125.1899 235.0587 13.17014231803487
MET-2/21
1 22782U 93055A   08121.62648809  .00000005  00000-0 -88774-5 0 01300
2 22782 082.5469 149.3088 0024146 065.2000 295.1662 13.83626751740554
OKEAN-4
1 23317U 94066A   08121.74621397 -.00000002  00000-0 -31225-5 0 05743
2 23317 082.5417 359.3395 0020590 285.5204 074.3726 14.82604774731254
NOAA-14
1 23455U 94089A   08122.76651305 -.00000078  00000-0 -17250-4 0  1263
2 23455 098.9475 194.9775 0008487 275.7472 084.2742 14.13739097687794
SICH-1
1 23657U 95046A   08121.73668942  .00000048  00000-0  30747-5 0 03727
2 23657 082.5264 140.3256 0022080 277.0204 082.8506 14.81572398683191
NOAA-15
1 25338U 98030A   08121.81176211  .00000066  00000-0  46804-4 0 04487
2 25338 098.5534 114.8799 0010684 174.3707 185.7611 14.24697757518054
RESURS
1 25394U 98043A   08121.96652278  .00000007  00000-0  21146-4 0 09337
2 25394 098.3899 168.0662 0001848 010.6725 349.4493 14.24157901509725
FENGYUN1
1 25730U 99025A   08121.93278792 -.00000416  00000-0 -22035-3 0 04556
2 25730 098.7237 099.3216 0020908 310.5090 049.4258 14.07709758462318
OKEAN-0
1 25860U 99039A   08122.60099136  .00000070  00000-0  18055-4 0  3554
2 25860 097.7490 115.2158 0001927 068.6447 291.4959 14.73518122472530
NOAA-16
1 26536U 00055A   08121.81758631  .00000080  00000-0  68710-4 0 09155
2 26536 099.1547 109.9607 0010610 003.8178 356.3068 14.12477511392082
NOAA-17
1 27453U 02032A   08121.76341053  .00000065  00000-0  46944-4 0  9081
2 27453 098.5368 187.7561 0010912 243.2492 116.7553 14.23969283304053
NOAA-18
1 28654U 05018A   08121.76064194  .00000159  00000-0  11264-3 0 04120
2 28654 098.8649 063.2798 0015352 087.7906 272.5032 14.11157854151789
HUBBLE
1 20580U 90037B   08122.71392583  .00000416  00000-0  19373-4 0  1265
2 20580 028.4699 266.3418 0003780 246.7735 113.2454 15.00373465787991
UARS
1 21701U 91063B   08121.93901822  .00007420  00000-0  11091-3 0 03741
2 21701 056.9742 007.5110 0091171 090.4164 270.7342 15.51556097915164
PO-34
1 25520U 98064B   08121.37462954  .00000557  00000-0  17625-4 0 09849
2 25520 028.4590 138.8747 0005518 126.3849 233.7254 15.17182928525893
ISS
1 25544U 98067A   08122.83988875  .00017563  00000-0  11473-3 0  4029
2 25544 051.6426 255.2461 0007140 158.0834 338.8487 15.75927978541216
OO-38
1 26063U 00004C   08121.69742839  .00000011  00000-0  24147-4 0 02000
2 26063 100.1936 187.7215 0036837 344.0070 015.9935 14.35833963432753
UWE-1
1 28892U 05043C   08121.44078083  .00000116  00000-0  34016-4 0 00365
2 28892 098.1008 016.2101 0016863 195.2081 164.8580 14.59621520133631
CO-58
1 28895U 05043F   08121.41001771  .00000012  00000-0  12101-4 0 00103
2 28895 098.1039 016.5198 0017370 195.5138 164.5506 14.59661711133515
NCUBE2
1 28897U 05043H   08122.27115668  .00000183  00000-0  47806-4 0  5408
2 28897 098.1011 017.2939 0016665 194.4190 165.6507 14.59832867125921
FCAL
1 29667U 06055J   08123.12355058  .00215523  37690-4  12141-3 0  9235
2 29667 051.6237 194.2178 0001225 356.4484 003.6560 16.18727227 79135
FALCON
1 30776U 07006E   08121.94537895  .00000671  00000-0  51943-4 0 03150
2 30776 035.4325 079.9975 0001811 322.0912 037.9683 15.02970309063037
MAST
1 31126U 07012K   08121.73924332  .00000088  00000-0  30345-4 0  3155
2 31126 098.0402 188.0613 0095583 118.6835 242.4011 14.53419763 55127
CAPE1
1 31130U 07012P   08122.19365808  .00000195  00000-0  55642-4 0  2951
2 31130 098.0425 187.6165 0103589 119.8333 241.3201 14.51958271 54900
/EX






More information about the Keps mailing list